Home   Weather   Seoul   Past weeks
Flag for South Korea

Past Weather in Seoul, South Korea — Yesterday and Last 2 Weeks

Now
37 °F

Clear.


Feels Like: 37 °F
Forecast: 61 / 34 °F
Wind: 2 mph from Northeast

Location: Seoul / Kimp'O International Airport

Current Time: Mar 30, 2020 at 4:29:31 am

Latest Report: Mar 30, 2020 at 4:00 am


Visibility: 10 mi

Pressure: 30.12 "Hg

Humidity: 87%

Dew Point: 34 °F

Location of SeoulLocation

Past Weather in Seoul — Graph

°F

Seoul Temperature Yesterday

Maximum temperature yesterday: 59 °F (at 2:00 pm)
Minimum temperature yesterday: 30 °F (at 5:00 am)
Average temperature yesterday: 45 °F

High & Low Weather Summary for the Past Weeks

 TemperatureHumidityPressure
High70 °F (Mar 26, 2:00 pm)100% (Mar 18, 2:00 am)30.24 "Hg (Mar 18, 2:00 am)
Low25 °F (Mar 16, 6:00 am)14% (Mar 28, 4:00 pm)29.56 "Hg (Mar 19, 7:00 am)
Average48 °F59%29.99 "Hg
* Reported Mar 15 3:00 am — Mar 30 3:00 am, Seoul. Weather by CustomWeather, © 2020

Note: Actual official high and low records may vary slightly from our data, if they occured in-between our weather recording intervals... More about our weather records

Seoul Weather History for the Previous 24 Hours

Scroll right to see more
 ConditionsComfort  
Time TempWeatherWind HumidityBarometerVisibility
3:00 am
Mon, Mar 30
37 °FClear.2 mph93%30.15 "Hg10 mi
2:00 am36 °FClear.3 mph87%30.15 "Hg10 mi
1:00 am39 °FClear.2 mph81%30.12 "Hg10 mi
12:00 am39 °FClear.2 mph87%30.12 "Hg10 mi
11:00 pm
Sun, Mar 29
41 °FClear.2 mph76%30.12 "Hg10 mi
10:00 pm43 °FClear.2 mph61%30.12 "Hg10 mi
9:00 pm45 °FClear.2 mph53%30.12 "Hg10 mi
8:00 pm48 °FClear.5 mph50%30.12 "Hg10 mi
7:00 pm50 °FClear.6 mph40%30.12 "Hg10 mi
6:00 pm54 °FSunny.12 mph41%30.09 "Hg10 mi
5:00 pm57 °FSunny.13 mph41%30.09 "Hg10 mi
4:00 pm57 °FPassing clouds.14 mph36%30.09 "HgN/A
3:00 pm59 °FPassing clouds.7 mph27%30.09 "HgN/A
2:00 pm59 °FSunny.6 mph29%30.12 "Hg10 mi
1:00 pm57 °FSunny.3 mph29%30.15 "Hg10 mi
12:00 pm57 °FPassing clouds.3 mph31%30.18 "HgN/A
11:00 am54 °FPassing clouds.8 mph33%30.21 "HgN/A
10:00 am50 °FPassing clouds.8 mph37%30.21 "HgN/A
9:00 am46 °FPassing clouds.6 mph37%30.21 "HgN/A
8:00 am39 °FSunny.5 mph56%30.24 "Hg10 mi
7:00 am30 °FSunny.2 mph75%30.24 "Hg10 mi
6:00 am34 °FClear.2 mph70%30.21 "Hg10 mi
5:00 am30 °FClear.3 mph69%30.21 "Hg10 mi
4:00 am32 °FClear.2 mph64%30.18 "Hg10 mi
Weather by CustomWeather, © 2020

See weather overview

Advertising